Location: *
(13.5167°S, 71.9667°W)
Time: 16:30:12
(UTC+00:00)

Daily predictions for brighter satellites

Satellite Brightness Start Highest point End
(mag) Time Altitude Azimuth Time Altitude Azimuth Time Altitude Azimuth
GPS 2-18 Rocket1 3.8 23:40:34 10° W 23:44:23 54° SSW 23:48:16 10° ESE
GPS 2-17 Rocket1 4.4 23:42:24 10° WSW 23:46:38 34° S 23:50:45 10° ESE
CZ-3 Stage 3 3.6 23:44:17 10° NW 23:49:15 36° NNE 23:51:57 10° E
Cosmos 2098 Rocket 3.7 23:44:15 10° S 23:49:17 79° E 23:55:34 10° N
GEOS 3 Rocket 4.4 23:44:27 10° NNE 23:49:24 50° WNW 23:54:19 10° SW
Cosmos 1346 Rocket 2.8 23:47:41 10° S 23:51:37 61° E 23:55:30 10° NNE
Fermi 4.4 23:50:45 10° W 23:54:40 46° NNW 23:58:31 10° NE
Cosmos 2058 Rocket 3.2 23:50:26 10° N 23:54:57 85° W 23:59:28 10° S
